• In Portugal
  • List of Countries
  • For 7 days
  • Water Temperature
  • Satellite Maps
  • Weather Map
  • Weather Widgets
  • user-avatar
    Login

    Hourly Weather Kamionka

    Today, 18 July, Wednesday

    Time Temperature Precipitation Wind Pressure Humidity
    00:00 +14°C° 0.1 mm 4 mps 701 mmHg 94%
    01:00 +14°C° 0 mm 4 mps 701 mmHg 94%
    02:00 +14°C° 0.1 mm 4 mps 700 mmHg 94%
    03:00 +14°C° 0.1 mm 5 mps 700 mmHg 94%
    04:00 +14°C° 0.1 mm 5 mps 700 mmHg 93%
    05:00 +14°C° 0.5 mm 5 mps 700 mmHg 93%
    06:00 +14°C° 0.5 mm 6 mps 701 mmHg 92%
    07:00 +15°C° 0 mm 5 mps 701 mmHg 92%
    08:00 +15°C° 0.6 mm 6 mps 701 mmHg 91%
    09:00 +15°C° 0.6 mm 6 mps 702 mmHg 91%
    10:00 +15°C° 0.6 mm 6 mps 702 mmHg 90%
    11:00 +16°C° 0.3 mm 6 mps 702 mmHg 89%
    12:00 +16°C° 0.3 mm 6 mps 703 mmHg 87%
    13:00 +16°C° 0 mm 5 mps 703 mmHg 88%
    14:00 +16°C° 0.2 mm 5 mps 703 mmHg 86%
    15:00 +17°C° 0.2 mm 6 mps 703 mmHg 84%
    16:00 +17°C° 0.2 mm 6 mps 704 mmHg 82%
    17:00 +17°C° 0.1 mm 5 mps 704 mmHg 83%
    18:00 +17°C° 0.1 mm 4 mps 704 mmHg 84%
    19:00 +17°C° 0.1 mm 3 mps 704 mmHg 86%
    20:00 +16°C° 0.1 mm 3 mps 704 mmHg 88%
    21:00 +16°C° 0.1 mm 3 mps 704 mmHg 90%
    22:00 +15°C° 0.1 mm 2 mps 704 mmHg 92%
    23:00 +14°C° 0 mm 3 mps 704 mmHg 93%

    Tomorrow, 19 July, Thursday

    Time Temperature Precipitation Wind Pressure Humidity
    00:00 +14°C° 0 mm 3 mps 704 mmHg 94%
    01:00 +13°C° 0 mm 3 mps 704 mmHg 95%
    02:00 +13°C° 0 mm 3 mps 704 mmHg 95%
    03:00 +13°C° 0 mm 3 mps 704 mmHg 95%
    04:00 +13°C° 0 mm 3 mps 704 mmHg 96%
    05:00 +14°C° 0 mm 4 mps 704 mmHg 93%
    06:00 +14°C° 0 mm 4 mps 705 mmHg 89%
    07:00 +15°C° 0 mm 5 mps 705 mmHg 86%
    08:00 +16°C° 0.1 mm 5 mps 705 mmHg 84%
    09:00 +17°C° 0.1 mm 5 mps 705 mmHg 81%
    10:00 +17°C° 0.1 mm 5 mps 705 mmHg 78%
    11:00 +17°C° 0.2 mm 5 mps 705 mmHg 78%
    12:00 +17°C° 0.2 mm 5 mps 705 mmHg 78%
    13:00 +19°C° 0.2 mm 5 mps 705 mmHg 78%
    14:00 +19°C° 0.1 mm 5 mps 705 mmHg 78%
    15:00 +17°C° 0.1 mm 5 mps 705 mmHg 79%
    16:00 +17°C° 0.1 mm 5 mps 705 mmHg 79%
    17:00 +17°C° 0 mm 5 mps 705 mmHg 81%
    18:00 +18°C° 0 mm 4 mps 705 mmHg 82%
    19:00 +17°C° 0 mm 3 mps 705 mmHg 84%
    20:00 +16°C° 0 mm 3 mps 705 mmHg 87%
    21:00 +16°C° 0 mm 2 mps 705 mmHg 89%
    22:00 +15°C° 0 mm 2 mps 705 mmHg 92%
    23:00 +14°C° 0 mm 2 mps 705 mmHg 92%

    Day after tomorrow, 20 July, Friday

    Time Temperature Precipitation Wind Pressure Humidity
    00:00 +14°C° 0 mm 2 mps 705 mmHg 92%
    01:00 +14°C° 0 mm 2 mps 705 mmHg 92%
    02:00 +14°C° 0 mm 2 mps 705 mmHg 92%
    03:00 +13°C° 0 mm 2 mps 705 mmHg 93%
    04:00 +13°C° 0 mm 2 mps 705 mmHg 93%
    05:00 +14°C° 0 mm 2 mps 705 mmHg 87%
    06:00 +15°C° 0 mm 2 mps 705 mmHg 80%
    07:00 +16°C° 0 mm 3 mps 706 mmHg 74%
    08:00 +18°C° 0 mm 3 mps 706 mmHg 67%
    09:00 +19°C° 0 mm 3 mps 706 mmHg 60%
    10:00 +20°C° 0 mm 3 mps 706 mmHg 53%
    11:00 +21°C° 0 mm 3 mps 706 mmHg 50%
    12:00 +22°C° 0 mm 3 mps 706 mmHg 48%
    13:00 +24°C° 0 mm 3 mps 706 mmHg 45%
    14:00 +24°C° 0 mm 2 mps 705 mmHg 44%
    15:00 +24°C° 0 mm 2 mps 705 mmHg 44%
    16:00 +24°C° 0 mm 2 mps 705 mmHg 43%
    17:00 +23°C° 0 mm 2 mps 705 mmHg 49%
    18:00 +21°C° 0 mm 1 mps 704 mmHg 55%
    19:00 +20°C° 0 mm 1 mps 704 mmHg 61%
    20:00 +19°C° 0 mm 1 mps 704 mmHg 64%
    21:00 +16°C° 0 mm 1 mps 704 mmHg 66%
    22:00 +15°C° 0 mm 1 mps 704 mmHg 69%
    23:00 +14°C° 0 mm 1 mps 704 mmHg 69%

    21 July, Saturday

    Time Temperature Precipitation Wind Pressure Humidity
    00:00 +14°C° 0 mm 1 mps 703 mmHg 70%
    01:00 +13°C° 0 mm 1 mps 703 mmHg 70%
    02:00 +13°C° 0 mm 1 mps 703 mmHg 71%
    03:00 +13°C° 0 mm 1 mps 703 mmHg 72%
    04:00 +13°C° 0 mm 1 mps 703 mmHg 73%
    05:00 +15°C° 0 mm 1 mps 703 mmHg 70%
    06:00 +16°C° 0 mm 1 mps 703 mmHg 67%
    07:00 +19°C° 0 mm 1 mps 704 mmHg 64%
    08:00 +21°C° 0 mm 1 mps 704 mmHg 59%
    09:00 +22°C° 0 mm 1 mps 704 mmHg 54%
    10:00 +24°C° 0 mm 1 mps 704 mmHg 49%
    11:00 +24°C° 0 mm 1 mps 704 mmHg 48%
    12:00 +25°C° 0 mm 1 mps 704 mmHg 46%
    13:00 +25°C° 0 mm 1 mps 704 mmHg 45%
    14:00 +25°C° 0 mm 1 mps 704 mmHg 45%
    15:00 +23°C° 0 mm 0 mps 703 mmHg 46%
    16:00 +23°C° 0 mm 0 mps 703 mmHg 46%
    17:00 +24°C° 0 mm 1 mps 703 mmHg 52%
    18:00 +23°C° 0 mm 1 mps 703 mmHg 58%
    19:00 +21°C° 0 mm 1 mps 702 mmHg 64%
    20:00 +20°C° 0.1 mm 1 mps 702 mmHg 67%
    21:00 +19°C° 0.1 mm 1 mps 702 mmHg 69%
    22:00 +18°C° 0.1 mm 1 mps 702 mmHg 72%
    23:00 +16°C° 0 mm 1 mps 702 mmHg 74%

    22 July, Sunday

    Time Temperature Precipitation Wind Pressure Humidity
    00:00 +16°C° 0 mm 1 mps 702 mmHg 76%
    01:00 +15°C° 0 mm 1 mps 702 mmHg 78%
    02:00 +14°C° 0 mm 0 mps 702 mmHg 79%
    03:00 +14°C° 0 mm 0 mps 702 mmHg 80%
    04:00 +14°C° 0 mm 0 mps 702 mmHg 81%
    05:00 +15°C° 0 mm 0 mps 702 mmHg 78%
    06:00 +16°C° 0 mm 0 mps 702 mmHg 75%
    07:00 +17°C° 0 mm 0 mps 702 mmHg 73%
    08:00 +20°C° 0.2 mm 1 mps 703 mmHg 70%
    09:00 +21°C° 0.2 mm 1 mps 703 mmHg 66%
    10:00 +22°C° 0.2 mm 1 mps 703 mmHg 63%
    11:00 +23°C° 0.5 mm 1 mps 703 mmHg 61%
    12:00 +24°C° 0.5 mm 2 mps 703 mmHg 59%
    13:00 +24°C° 0.5 mm 2 mps 703 mmHg 57%
    14:00 +24°C° 0.6 mm 2 mps 703 mmHg 58%
    15:00 +24°C° 0.6 mm 3 mps 703 mmHg 59%
    16:00 +24°C° 0.6 mm 3 mps 703 mmHg 60%
    17:00 +22°C° 0.2 mm 3 mps 703 mmHg 64%
    18:00 +20°C° 0.2 mm 2 mps 703 mmHg 68%
    19:00 +19°C° 0.2 mm 2 mps 703 mmHg 72%
    20:00 +18°C° 0 mm 2 mps 703 mmHg 74%
    21:00 +18°C° 0 mm 1 mps 703 mmHg 75%
    22:00 +16°C° 0 mm 1 mps 703 mmHg 77%
    23:00 +15°C° 0 mm 1 mps 703 mmHg 77%

    23 July, Monday

    Time Temperature Precipitation Wind Pressure Humidity
    00:00 +15°C° 0 mm 1 mps 703 mmHg 78%
    01:00 +14°C° 0 mm 1 mps 703 mmHg 79%
    02:00 +14°C° 0 mm 1 mps 703 mmHg 79%
    03:00 +13°C° 0 mm 1 mps 704 mmHg 80%
    04:00 +13°C° 0 mm 1 mps 704 mmHg 80%
    05:00 +15°C° 0 mm 1 mps 704 mmHg 76%
    06:00 +16°C° 0 mm 2 mps 705 mmHg 73%
    07:00 +18°C° 0 mm 2 mps 705 mmHg 69%
    08:00 +19°C° 0.1 mm 2 mps 706 mmHg 65%
    09:00 +21°C° 0.1 mm 2 mps 706 mmHg 62%
    10:00 +22°C° 0.1 mm 3 mps 706 mmHg 58%
    11:00 +22°C° 0.2 mm 3 mps 706 mmHg 58%
    12:00 +22°C° 0.2 mm 3 mps 706 mmHg 58%
    13:00 +24°C° 0.2 mm 3 mps 706 mmHg 58%
    14:00 +24°C° 0.1 mm 3 mps 706 mmHg 57%
    15:00 +24°C° 0.1 mm 3 mps 706 mmHg 56%
    16:00 +24°C° 0.1 mm 3 mps 706 mmHg 55%
    17:00 +22°C° 0 mm 3 mps 706 mmHg 60%
    18:00 +21°C° 0 mm 2 mps 706 mmHg 65%
    19:00 +21°C° 0 mm 1 mps 706 mmHg 69%
    20:00 +19°C° 0 mm 1 mps 706 mmHg 72%
    21:00 +18°C° 0 mm 1 mps 706 mmHg 75%
    22:00 +16°C° 0 mm 1 mps 706 mmHg 78%
    23:00 +15°C° 0 mm 1 mps 706 mmHg 79%
    Show more